Weather History for Hatteras, NC

Change the Weather History Date:

Friday, September 13, 2013

  Actual Average Record
Temperature  
Mean Temperature 80 °F 75 °F  
Max Temperature 86 °F 81 °F 90 °F (1915)
Min Temperature 74 °F 70 °F 57 °F (1994)
Degree Days  
Heating Degree Days 0 0  
Month to date heating degree days 0 0  
Since 1 July heating degree days 0 0  
Cooling Degree Days 15 10  
Month to date cooling degree days 177 147  
Year to date cooling degree days 1721 1453  
Growing Degree Days 30 (Base 50)    
Moisture  
Dew Point 70 °F    
Average Humidity 69    
Maximum Humidity 79    
Minimum Humidity 59    
Precipitation  
Precipitation T in 0.22 in 2.65 in (1983)
Month to date precipitation 1.33 2.92  
Year to date precipitation 32.53 40.11  
Snow  
Snow 0.00 in - - ()
Month to date snowfall 0.0  
Since 1 July snowfall 0.0  
Snow Depth 0.00 in    
Sea Level Pressure  
Sea Level Pressure 29.77 in    
Wind  
Wind Speed 9 mph (NW)    
Max Wind Speed 17 mph    
Max Gust Speed 23 mph    
Visibility 10 miles    
Events      
T = Trace of Precipitation, MM = Missing Value Source: NWS Daily Summary

Daily Weather History Graph

Daily Weather History Graph

Search for Another Location

Airport:

Trip Planner

Search our weather history database for the weather conditions in past years. The results will help you decide how hot, cold, wet, or windy it might be!

Date:

Astronomy

Sep. 13, 2013 Rise Set
Actual Time 6:43 AM EDT 7:12 PM EDT
Civil Twilight 6:18 AM EDT 7:37 PM EDT
Nautical Twilight 5:48 AM EDT 8:07 PM EDT
Astronomical Twilight 5:17 AM EDT 8:37 PM EDT
Moon 2:50 PM EDT (9/13) 12:20 AM EDT (9/13)
Length of Visible Light 13h 19m
Length of Day
12h 28m
First Quarter, 61% of the Moon is Illuminated
Sep 13
First Quarter
Sep 19
Full
Sep 26
Last Quarter
Oct 4
New
Oct 11
First Quarter

Hourly Weather History & Observations

Time (EDT) Temp. Heat Index Dew Point Humidity Pressure Visibility Wind Dir Wind Speed Gust Speed Precip Events Conditions
12:51 AM 80.1 °F 83.6 °F 71.1 °F 74% 29.81 in 10.0 mi SW 10.4 mph 18.4 mph N/A   Clear
1:51 AM 80.1 °F 84.2 °F 73.0 °F 79% 29.80 in 10.0 mi WSW 11.5 mph - N/A   Mostly Cloudy
2:51 AM 80.1 °F 84.2 °F 73.0 °F 79% 29.78 in 10.0 mi WSW 16.1 mph 20.7 mph N/A   Overcast
3:51 AM 80.1 °F 84.2 °F 73.0 °F 79% 29.75 in 10.0 mi WSW 15.0 mph 21.9 mph N/A   Scattered Clouds
4:51 AM 80.1 °F 84.5 °F 73.9 °F 81% 29.75 in 10.0 mi WSW 10.4 mph 20.7 mph N/A   Scattered Clouds
5:51 AM 79.0 °F - 72.0 °F 79% 29.74 in 10.0 mi West 12.7 mph 21.9 mph 0.00 in   Mostly Cloudy
6:51 AM 79.0 °F - 71.1 °F 77% 29.75 in 10.0 mi West 9.2 mph - N/A   Partly Cloudy
7:51 AM 78.1 °F - 70.0 °F 76% 29.75 in 10.0 mi West 9.2 mph - N/A   Scattered Clouds
8:51 AM 81.0 °F 85.2 °F 72.0 °F 74% 29.76 in 10.0 mi West 12.7 mph 21.9 mph N/A   Scattered Clouds
9:51 AM 82.0 °F 86.7 °F 72.0 °F 71% 29.75 in 9.0 mi West 10.4 mph - N/A   Partly Cloudy
10:51 AM 81.0 °F 85.2 °F 72.0 °F 74% 29.75 in 8.0 mi West 9.2 mph - N/A   Clear
11:51 AM 80.1 °F 83.8 °F 72.0 °F 76% 29.75 in 7.0 mi WNW 8.1 mph - N/A   Partly Cloudy
12:51 PM 82.9 °F 87.0 °F 70.0 °F 65% 29.75 in 10.0 mi NW 6.9 mph - N/A   Clear
1:51 PM 84.0 °F 89.0 °F 71.1 °F 65% 29.75 in 10.0 mi NW 6.9 mph - N/A   Clear
2:51 PM 84.9 °F 88.2 °F 68.0 °F 57% 29.73 in 10.0 mi Variable 4.6 mph - N/A   Mostly Cloudy
3:51 PM 84.0 °F 88.4 °F 70.0 °F 63% 29.73 in 10.0 mi North 5.8 mph - N/A   Clear
4:51 PM 84.0 °F 88.4 °F 70.0 °F 63% 29.72 in 10.0 mi Variable 3.5 mph - N/A   Partly Cloudy
5:51 PM 81.0 °F 84.4 °F 70.0 °F 69% 29.74 in 10.0 mi NNE 5.8 mph - N/A   Mostly Cloudy
6:51 PM 78.1 °F - 69.1 °F 74% 29.77 in 10.0 mi ENE 6.9 mph - N/A   Mostly Cloudy
7:07 PM 77.0 °F - 68.0 °F 74% 29.78 in 10.0 mi ENE 5.8 mph - N/A   Mostly Cloudy
7:51 PM 77.0 °F - 66.9 °F 71% 29.79 in 10.0 mi ENE 8.1 mph - N/A   Overcast
8:51 PM 75.9 °F - 62.1 °F 62% 29.81 in 10.0 mi NE 10.4 mph 17.3 mph 0.00 in   Mostly Cloudy
9:51 PM 75.9 °F - 64.0 °F 67% 29.83 in 10.0 mi ENE 6.9 mph - N/A   Overcast
10:51 PM 75.9 °F - 63.0 °F 64% 29.83 in 10.0 mi ENE 5.8 mph - N/A   Mostly Cloudy
11:51 PM 75.9 °F - 61.0 °F 60% 29.84 in 10.0 mi NE 8.1 mph - N/A   Overcast